Preview of NWS' New Version of Forecast
This preview is not operational and should not be used for support decisions.

Regional Weather Roundup (RWR)

Issued by National Weather Service (NWS)

                            
000
ASUS44 KJAN 220210
RWRMS 

MISSISSIPPI HOURLY WEATHER ROUNDUP
NATIONAL WEATHER SERVICE JACKSON MS
800 PM CST THU FEB 21 2019

NOTE: "FAIR: INDICATES FEW OR NO CLOUDS BELOW 12,000 FEET WITH NO
SIGNIFICANT WEATHER AND/OR OBSTRUCTIONS TO VISIBILITY.

MSZ001>002-007>008-010>013-018>021-025>028-034>036-220300-
NORTHWEST MISSISSIPPI
  
CITY           SKY/WX    TMP DP  RH WIND       PRES   REMARKS
BATESVILLE     CLOUDY    46  45  93 NE10      30.12F                  
CLARKSDALE       N/A     45  45 100 NE12      30.15R FOG              
CLEVELAND      DRIZZLE   45  45 100 NE14      30.12R                  
GREENWOOD      LGT RAIN  47  45  93 NE10      30.11F                  
GREENVILLE     CLOUDY    46  43  89 NE13      30.11S                  
OLIVE BRANCH   LGT RAIN  43  43 100 NE12      30.15F FOG              
OXFORD         DRIZZLE   43  43 100 NE14      30.15F                  
TUNICA         LGT RAIN  43  43 100 NE12      30.17R                  
WINONA         CLOUDY    46  46 100 NE7       30.12R                  
$$

MSZ003>006-009-014>017-022>024-029>033-037>039-220300-
NORTHEAST MISSISSIPPI
  
CITY           SKY/WX    TMP DP  RH WIND       PRES   REMARKS
ABERDEEN       LGT RAIN  48  48 100 N10       30.12F                  
COLUMBUS AFB   LGT RAIN  49  47  94 N12       30.09S                  
CORINTH        HVY RAIN  46  45  93 NE12      30.21R                  
GOLDN TRIANGLE LGT RAIN  48  48 100 N12       30.10R                  
STARKVILLE     CLOUDY    46  46 100 N12       30.10S                  
TUPELO         TSTM      47  44  90 N16       30.15R                  
$$

MSZ040-058-220300-
CENTRAL MISSISSIPPI
  
CITY           SKY/WX    TMP DP  RH WIND       PRES   REMARKS
JACKSON INTL   CLOUDY    50  49  96 N13       30.05R FOG              
JACKSON HAWKNS CLOUDY    49  49 100 N8        30.06R FOG              
MADISON        CLOUDY    46  46 100 N5        30.06R                  
MERIDIAN KEY   CLOUDY    53  51  93 NE9       30.05R FOG              
MERIDIAN NAS   CLOUDY    51  50  96 NE7       30.06R FOG              
RAYMOND          N/A     48  48 100 VRB5G13   30.06R                  
VICKSBURG VKS  CLOUDY    48  48 100 NE7G14    30.05F                  
$$

MSZ059>079-220300-
SOUTH MISSISSIPPI
  
CITY           SKY/WX    TMP DP  RH WIND       PRES   REMARKS
HATTIESBURG    CLOUDY    66  65  96 CALM      30.01R FOG              
LAUREL         CLOUDY    60  60 100 CALM      30.02S                  
MCCOMB         CLOUDY    63  61  93 CALM      29.98R FOG              
NATCHEZ        CLOUDY    47  47 100 N9        30.03R                  
PINE BELT      FOG       61  61 100 N5        30.02R VSB 1/4          
$$

MSZ080>082-220300-
COASTAL MISSISSIPPI
  
CITY           SKY/WX    TMP DP  RH WIND       PRES   REMARKS
BILOXI         FOG       69  69 100 SE9       30.01S VSB 3/4          
PASCAGOULA     CLOUDY    71  69  93 SE8       30.03R FOG              
GULFPORT       FOG       69  68  96 SE9       30.01R VSB 3/4          
$$

LAZ007>009-015>016-023>026-220300-
NORTHEAST LOUISIANA
  
CITY           SKY/WX    TMP DP  RH WIND       PRES   REMARKS
BASTROP        CLOUDY    45  45  98 NE8G18    30.08S                  
TALLULAH/VBURG CLOUDY    47  45  93 NE12      30.05F                  
VIDALIA        DRIZZLE   48  47  96 N9G16     30.02S                  
$$